Regional Weather Roundup
Issued by NWS

Home | Current Version | Previous Version | Graphics & Text | Print | Product List | Glossary Off
Versions: 1 2 3 4 5 6 7 8 9 10 11 12 13 14 15 16 17 18 19 20 21 22 23 24 25 26 27 28 29 30 31 32 33 34 35 36 37 38 39 40 41 42 43 44 45 46 47 48 49 50

000
ASUS43 KMPX 250201
RWRMN
WEATHER ROUNDUP FOR MINNESOTA
NATIONAL WEATHER SERVICE TWIN CITIES/CHANHASSEN MN
900 PM CDT FRI MAR 24 2017


NOTE: "FAIR" INDICATES FEW OR NO CLOUDS BELOW 12,000 FEET WITH NO
SIGNIFICANT WEATHER AND/OR OBSTRUCTIONS TO VISIBILITY. N/A MEANS
CURRENT SKY AND/OR WEATHER CONDITIONS ARE NOT AVAILABLE.

MNZ060>063-068>070-250300-
   Twin Cities Metro

CITY           SKY/WX    TMP DP  RH WIND       PRES   REMARKS
TWIN CITIES    CLOUDY    40  33  76 NE13G25   30.18R
ST PAUL        CLOUDY    40  35  83 NE14      30.19R
CRYSTAL        CLOUDY    39  31  72 NE7       30.18R
BLAINE         CLOUDY    39  36  87 NE10      30.18R
LAKEVILLE      CLOUDY    37  36  93 NE14      30.16R
EDEN PRAIRIE   CLOUDY    41  33  73 NE14      30.16R
SOUTH ST PAUL  CLOUDY    40  34  77 NE8       30.17S
LAKE ELMO      CLOUDY    39  34  81 NE7       30.19R
$$
MNZ001>005-007-008-013>017-022>024-027-028-250300-
   Northwest Minnesota

CITY           SKY/WX    TMP DP  RH WIND       PRES   REMARKS
BEMIDJI        CLOUDY    36  28  74 E5        30.20R
HALLOCK        CLOUDY    34  30  86 CALM      30.24S
ROSEAU         CLEAR     32  27  80 NE3       30.24R
WARROAD        CLEAR     32  27  80 NE3       30.25R
THIEF RVR FALL CLEAR    N/A N/A N/A N8        30.22S
CROOKSTON      CLEAR     32  28  86 N7        30.23S WCI  26
FOSSTON        CLEAR     28  27  93 N6        30.21R WCI  22
DETROIT LAKES  CLEAR     36  32  87 E3        30.20R
MOORHEAD       CLEAR     34  30  86 N9        30.22R WCI  26
PARK RAPIDS    CLOUDY    39  27  62 E6        30.19R
MAHNOMEN       FAIR      32  29  90 N7        30.19R WCI  26
$$
MNZ006-009>011-018-025>026-250300-
   North Central Minnesota

CITY           SKY/WX    TMP DP  RH WIND       PRES   REMARKS
BAUDETTE       MOCLDY    33  25  72 NE7       30.22R WCI  27
FLAG ISLAND    CLOUDY    34  25  69 NE5       30.24S WCI  30
INTL FALLS     CLOUDY    36  26  67 NE5       30.23R
WASKISH        CLOUDY    37  28  70 CALM      30.22R
BIG FORK       CLOUDY    36  28  75 CALM      30.22R
LONGVILLE      CLOUDY    36  30  80 CALM      30.21R
GRAND RAPIDS   CLOUDY    36  31  82 CALM      30.23R
CRANE LAKE     CLOUDY    32  28  86 CALM      30.25R
ORR            CLOUDY    34  27  75 CALM      30.21R
COOK           CLOUDY    34  30  86 CALM      30.24R
WALKER         CLOUDY    36  29  76 E5        30.20R
$$
MNZ012-019>021-037-250300-
   Northeast Minnesota

CITY           SKY/WX    TMP DP  RH WIND       PRES   REMARKS
DULUTH         LGT SNOW  34  32  92 E9        30.21S FOG     WCI  27
ELY            CLOUDY    34  30  86 CALM      30.22R
HIBBING        CLOUDY    33  31  92 CALM      30.22R
EVELETH        CLOUDY    34  32  93 CALM      30.24R
DULUTH HARBOR  CLOUDY    36  34  93 NE17      30.25S
TWO HARBORS    LGT RAIN  37  32  81 E6        30.23R
SILVER BAY     RAIN      34  34 100 NE3       30.24R
GRAND MARAIS     N/A     35  31  85 CALM      30.27R
G MARAIS ARPRT CLOUDY    30  25  80 NE7       30.22R WCI  23
$$
MNZ029>031-032-039>041-046>048-054>057-064-250300-
   West Central Minnesota

CITY           SKY/WX    TMP DP  RH WIND       PRES   REMARKS
FERGUS FALLS   CLOUDY    36  30  80 N5        30.21S
WHEATON        CLOUDY    34  30  86 N8        30.19S WCI  27
MORRIS         PTCLDY    37  34  87 E8        30.16R
ALEXANDRIA     CLOUDY    35  30  82 NE9       30.17R WCI  28
ELBOW LAKE     FAIR      37  32  83 CALM      30.16F
WADENA         CLOUDY    36  28  75 E6        30.18S
GLENWOOD       MOCLDY    34  30  86 NE8       30.17R WCI  27
APPLETON       PTCLDY    36  32  87 CALM      30.17R
BENSON         CLOUDY    37  30  75 SE5       30.18S
ORTONVILLE     CLOUDY    34  28  80 N7        30.16R WCI  28
MADISON        CLOUDY    43  39  87 CALM      30.17R
WILLMAR        CLOUDY    39  34  81 NE14G21   30.18R
$$
MNZ033>034-036-042>043-049>051-058-059-250300-
   Central Minnesota

CITY           SKY/WX    TMP DP  RH WIND       PRES   REMARKS
ST CLOUD       CLOUDY    39  33  79 E7        30.19R
SAUK CENTRE    CLOUDY    37  31  80 NE12      30.18R
PAYNESVILLE      N/A     38  32  80 NE12      30.18R
AITKIN         CLOUDY    39  30  70 NE3       30.19S
PINE RIVER     CLOUDY    37  30  75 E3        30.23S
BRAINERD       CLOUDY    37  30  75 NE6       30.19S
STAPLES        CLOUDY    37  28  70 E3        30.19S
LONG PRAIRIE   CLOUDY    36  32  87 N6        30.18R
LITTLE FALLS   CLOUDY    37  30  75 CALM      30.19S
LITCHFIELD     CLOUDY    39  34  81 NE10      30.18R
BUFFALO        CLOUDY    38  32  78 NE10      30.19R
MAPLE LAKE     CLOUDY    39  34  83 NE9       30.19R
HUTCHINSON     CLOUDY    38  35  87 NE12      30.18R
$$
MNZ037-044-045-052-053-250300-
   East Central Minnesota

CITY           SKY/WX    TMP DP  RH WIND       PRES   REMARKS
PRINCETON      CLOUDY    39  34  81 NE6       30.19R
MORA           CLOUDY    36  30  80 NE3       30.21R
CAMBRIDGE      CLOUDY    41  30  65 NE6       30.18R
RUSH CITY      CLOUDY    38  32  79 NE6       30.20R
MOOSE LAKE     CLOUDY    36  32  87 NE5       30.18F
HINCKLEY       FAIR      34  32  93 NE5       30.20R WCI  30
CLOQUET        CLOUDY    36  30  80 NE7       30.21F
MCGREGOR       CLOUDY    36  32  87 NE5       30.20F
$$
MNZ071>073-080-081-089-090-097-098-250300-
   Southwest Minnesota

CITY           SKY/WX    TMP DP  RH WIND       PRES   REMARKS
MONTEVIDEO     PTCLDY    34  34 100 SE9       30.18R WCI  26
GRANITE FALLS  CLOUDY    40  35  81 NE9       30.18R
CANBY          CLOUDY    39  36  90 CALM      30.17R
MARSHALL       CLOUDY    38  34  85 E12       30.17R
REDWOOD FALLS  CLOUDY    39  32  76 NE10      30.16R
OLIVIA         CLOUDY    37  34  87 NE13      30.16S
PIPESTONE      CLOUDY    37  32  81 NE13G23   30.11R
WINDOM         CLOUDY    37  36  93 NE13G24   30.13S
WORTHINGTON    CLOUDY    36  35  96 NE20      30.11R FOG
JACKSON        CLOUDY    37  36  93 N18G24    30.12R FOG
TRACY          CLOUDY    38  35  90 NE10      30.15S
SLAYTON        CLOUDY    35  33  95 NE16G22   30.13S FOG     WCI  24
$$
MNZ065>067-074>077-082>085-091>093-250300-
   South Central Minnesota

CITY           SKY/WX    TMP DP  RH WIND       PRES   REMARKS
MANKATO        CLOUDY    40  36  86 N14       30.14R
NEW ULM        CLOUDY    37  34  87 NE9       30.15S
ST JAMES       CLOUDY    37  36  93 N10       30.14F
FAIRMONT       CLOUDY    40  37  89 N12       30.11S
GLENCOE        CLOUDY    39  37  90 NE6       30.17R
FARIBAULT      CLOUDY    41  37  87 N10G17    30.14S
OWATONNA       CLOUDY    41  36  81 NE9       30.13R
WASECA         CLOUDY    41  36  81 N12       30.13S
ALBERT LEA     CLOUDY    39  39 100 NE9       30.09S
$$
MNZ078>079-086>088-094>096-250300-
   Southeast Minnesota

CITY           SKY/WX    TMP DP  RH WIND       PRES   REMARKS
ROCHESTER      CLOUDY    39  37  92 NE13      30.10S
RED WING       CLOUDY    43  34  70 NE6       30.15R
STANTON        CLOUDY    41  37  84 NE10G18   30.14R
DODGE CENTER   CLOUDY    39  37  93 NE8       30.11F FOG
WINONA         CLOUDY    41  36  81 NE5       30.15R
AUSTIN         CLOUDY    39  37  93 NE14G21   30.08F
PRESTON        LGT RAIN  38  36  93 NE12      30.09S
$$
ABBREVIATIONS USED IN REMARKS
   TC - TEMPERATURES IN CELSIUS
  WCI - WIND CHILL INDEX
   HX - HEAT INDEX
  VSB - VISIBILITY
$$



USA.gov is the U.S. government's official web portal to all federal, state and local government web resources and services.